N2IVN Weather Reports


time (UTC)temp
C
wind
direction
speed
KPH
gust
KPH
rain 1hr
cm
rain 24hr
cm
rain mn
cm
humidity
%
barometer
mb
20260505022504 15 201 0.0 8.0 0.00 0.00 0.00 74 1011.3
20260505022004 15 203 1.6 12.9 0.00 0.00 0.00 74 1011.4
20260505021504 15 189 1.6 11.3 0.00 0.00 0.00 74 1011.4
20260505021004 15 180 0.0 4.8 0.00 0.00 0.00 74 1011.5
20260505015504 15 218 0.0 4.8 0.00 0.00 0.00 73 1011.4
20260505015005 15 204 3.2 9.7 0.00 0.00 0.00 73 1011.3
20260505014504 16 185 1.6 14.5 0.00 0.00 0.00 73 1011.3
20260505014004 15 212 3.2 11.3 0.00 0.00 0.00 72 1011.3
20260505013504 15 218 1.6 11.3 0.00 0.00 0.00 72 1011.3
20260505012004 16 211 0.0 0.0 0.00 0.00 0.00 69 1011.3
20260505011004 16 202 0.0 3.2 0.00 0.00 0.00 68 1011.1
20260505010504 16 202 0.0 0.0 0.00 0.00 0.00 68 1011.1
20260505010005 16 192 1.6 9.7 0.00 0.00 0.00 67 1010.9
20260505005504 16 182 1.6 9.7 0.00 0.00 0.00 66 1010.8
20260505004504 16 202 1.6 4.8 0.00 0.00 0.00 63 1010.9
20260505004004 16 202 0.0 11.3 0.00 0.00 0.00 62 1010.9
20260505003504 17 180 3.2 12.9 0.00 0.00 0.00 60 1011.0
20260505002004 17 180 1.6 12.9 0.00 0.00 0.00 57 1010.8
20260505001504 17 200 0.0 0.0 0.00 0.00 0.00 56 1010.7
20260505001004 18 202 0.0 4.8 0.00 0.00 0.00 55 1010.8
20260505000005 18 190 1.6 11.3 0.00 0.00 0.00 54 1010.7
20260504235506 18 188 0.0 4.8 0.00 0.00 0.00 53 1010.6
20260504235006 18 202 1.6 11.3 0.00 0.00 0.00 52 1010.6
20260504234005 19 180 0.0 3.2 0.00 0.00 0.00 51 1010.4
20260504232506 20 198 8.0 16.1 0.00 0.00 0.00 49 1010.4
20260504232006 20 221 4.8 16.1 0.00 0.00 0.00 49 1010.3
20260504231506 20 198 4.8 19.3 0.00 0.00 0.00 48 1010.3
20260504231005 20 202 4.8 16.1 0.00 0.00 0.00 48 1010.3
20260504230506 20 203 8.0 20.9 0.00 0.00 0.00 48 1010.2
20260504230005 21 202 1.6 14.5 0.00 0.00 0.00 47 1010.2
20260504225005 21 184 4.8 19.3 0.00 0.00 0.00 45 1010.2
20260504224505 21 225 6.4 19.3 0.00 0.00 0.00 45 1010.2
20260504224006 21 213 6.4 19.3 0.00 0.00 0.00 44 1010.1
20260504223505 21 207 0.0 9.7 0.00 0.00 0.00 44 1010.2
20260504222505 22 228 6.4 16.1 0.00 0.00 0.00 42 1010.3
20260504222005 22 195 3.2 20.9 0.00 0.00 0.00 42 1010.2
20260504221505 22 188 8.0 20.9 0.00 0.00 0.00 41 1010.2
20260504221005 22 208 4.8 20.9 0.00 0.00 0.00 41 1010.2
20260504220505 22 221 8.0 19.3 0.00 0.00 0.00 41 1010.1
20260504220005 22 230 4.8 14.5 0.00 0.00 0.00 41 1010.2
20260504215506 22 221 4.8 20.9 0.00 0.00 0.00 40 1010.2
20260504215006 22 225 3.2 16.1 0.00 0.00 0.00 40 1010.4
20260504214505 22 224 1.6 14.5 0.00 0.00 0.00 40 1010.3
20260504214006 22 224 9.7 27.4 0.00 0.00 0.00 39 1010.3
20260504213506 22 221 3.2 22.5 0.00 0.00 0.00 40 1010.3
20260504213005 22 241 3.2 27.4 0.00 0.00 0.00 39 1010.3
20260504212506 22 226 11.3 20.9 0.00 0.00 0.00 39 1010.3
20260504212006 22 209 8.0 20.9 0.00 0.00 0.00 39 1010.4
20260504211504 22 203 3.2 24.1 0.00 0.00 0.00 39 1010.4
20260504210506 22 233 12.9 29.0 0.00 0.00 0.00 39 1010.3
20260504210005 23 231 14.5 25.7 0.00 0.00 0.00 39 1010.4
20260504205005 23 208 3.2 19.3 0.00 0.00 0.00 39 1010.3
20260504204505 23 222 3.2 25.7 0.00 0.00 0.00 39 1010.4
20260504204005 23 196 16.1 24.1 0.00 0.00 0.00 38 1010.5
20260504202505 23 205 1.6 22.5 0.00 0.00 0.00 38 1010.5
20260504202005 23 215 3.2 20.9 0.00 0.00 0.00 38 1010.5
20260504201505 23 223 8.0 27.4 0.00 0.00 0.00 38 1010.7
20260504200005 24 213 9.7 20.9 0.00 0.00 0.00 37 1010.8
20260504195505 24 204 3.2 20.9 0.00 0.00 0.00 37 1010.8
20260504195005 24 217 14.5 24.1 0.00 0.00 0.00 36 1010.9
20260504194505 25 211 1.6 22.5 0.00 0.00 0.00 36 1010.9
20260504194005 25 232 1.6 16.1 0.00 0.00 0.00 37 1011.0
20260504193005 25 202 3.2 19.3 0.00 0.00 0.00 35 1011.1
20260504192505 25 224 8.0 19.3 0.00 0.00 0.00 35 1011.1
20260504192005 26 199 8.0 29.0 0.00 0.00 0.00 35 1011.1
20260504191505 26 232 1.6 16.1 0.00 0.00 0.00 34 1011.2
20260504191005 27 204 8.0 25.7 0.00 0.00 0.00 34 1011.2
20260504190506 27 207 0.0 4.8 0.00 0.00 0.00 34 1011.3
20260504190005 27 210 3.2 16.1 0.00 0.00 0.00 34 1011.5
20260504185504 27 193 4.8 19.3 0.00 0.00 0.00 33 1011.5
20260504185004 28 196 9.7 19.3 0.00 0.00 0.00 32 1011.4
20260504184505 28 197 4.8 16.1 0.00 0.00 0.00 32 1011.4
20260504184005 29 200 4.8 25.7 0.00 0.00 0.00 31 1011.6
20260504183505 30 224 4.8 29.0 0.00 0.00 0.00 32 1011.6
20260504183005 30 207 8.0 24.1 0.00 0.00 0.00 32 1011.6
20260504182505 29 224 3.2 19.3 0.00 0.00 0.00 33 1011.6
20260504182005 29 202 1.6 14.5 0.00 0.00 0.00 32 1011.8
20260504181505 29 214 4.8 16.1 0.00 0.00 0.00 32 1011.8
20260504181005 30 184 3.2 19.3 0.00 0.00 0.00 31 1011.9
20260504180505 30 219 4.8 24.1 0.00 0.00 0.00 33 1012.1
20260504180005 30 224 4.8 20.9 0.00 0.00 0.00 32 1012.2
20260504175505 30 216 8.0 22.5 0.00 0.00 0.00 33 1012.2
20260504174505 29 221 3.2 11.3 0.00 0.00 0.00 34 1012.2
20260504174005 29 193 8.0 19.3 0.00 0.00 0.00 32 1012.2
20260504173505 30 200 17.7 32.2 0.00 0.00 0.00 31 1012.2
20260504173006 30 221 12.9 19.3 0.00 0.00 0.00 31 1012.4
20260504172505 31 208 8.0 16.1 0.00 0.00 0.00 32 1012.4
20260504172005 31 225 1.6 12.9 0.00 0.00 0.00 33 1012.6
20260504171505 31 319 0.0 12.9 0.00 0.00 0.00 33 1012.7
20260504171005 31 191 9.7 29.0 0.00 0.00 0.00 32 1012.9
20260504170506 31 225 0.0 12.9 0.00 0.00 0.00 35 1012.7
20260504151004 24 219 3.2 19.3 0.00 0.00 0.00 46 1013.9
20260504150504 24 225 1.6 14.5 0.00 0.00 0.00 46 1013.8
20260504140504 26 200 3.2 14.5 0.00 0.00 0.00 48 1014.1
20260504130505 19 227 1.6 16.1 0.00 0.00 0.00 55 1014.6
20260504110505 10 180 0.0 3.2 0.00 0.00 0.00 86 1015.4
20260504100505 8 225 0.0 0.0 0.00 0.00 0.00 86 1015.5
20260504082005 8 225 3.2 19.3 0.00 0.00 0.00 78 1015.5
20260504081504 8 202 3.2 11.3 0.00 0.00 0.00 78 1015.5
20260504081004 8 202 0.0 9.7 0.00 0.00 0.00 77 1015.5
20260504080505 7 190 1.6 4.8 0.00 0.00 0.00 77 1015.5
20260504050505 8 225 0.0 3.2 0.00 0.00 0.00 72 1015.0
20260504050004 8 225 0.0 4.8 0.00 0.00 0.00 72 1015.0
20260504045504 8 212 1.6 8.0 0.00 0.00 0.00 71 1015.0
20260504045004 8 202 1.6 9.7 0.00 0.00 0.00 71 1014.9
20260504044504 8 222 0.0 4.8 0.00 0.00 0.00 71 1014.8
20260504044004 8 225 0.0 9.7 0.00 0.00 0.00 70 1014.7
20260504043505 8 202 1.6 11.3 0.00 0.00 0.00 70 1014.9
20260504043004 8 217 0.0 8.0 0.00 0.00 0.00 69 1014.8
20260504042504 8 213 0.0 11.3 0.00 0.00 0.00 69 1014.9
20260504042004 8 203 3.2 11.3 0.00 0.00 0.00 69 1014.7
20260504041504 8 212 3.2 9.7 0.00 0.00 0.00 69 1014.8
20260504041004 8 203 1.6 8.0 0.00 0.00 0.00 68 1014.7
20260504040504 8 206 1.6 11.3 0.00 0.00 0.00 67 1014.7
20260504040004 8 207 1.6 11.3 0.00 0.00 0.00 67 1014.6
20260504035504 8 202 0.0 11.3 0.00 0.00 0.00 67 1014.6
20260504034504 8 204 1.6 9.7 0.00 0.00 0.00 65 1014.6
20260504033004 8 217 1.6 11.3 0.00 0.00 0.00 63 1014.4
20260504032003 8 215 3.2 11.3 0.00 0.00 0.00 63 1014.4
20260504031504 8 202 1.6 4.8 0.00 0.00 0.00 62 1014.3
20260504031004 8 202 1.6 4.8 0.00 0.00 0.00 62 1014.3
20260504030504 8 225 3.2 9.7 0.00 0.00 0.00 62 1014.4
20260504025505 9 215 0.0 0.0 0.00 0.00 0.00 61 1014.2
20260504025004 9 213 0.0 0.0 0.00 0.00 0.00 60 1014.3
20260504024504 9 209 3.2 11.3 0.00 0.00 0.00 59 1014.3
20260504024004 9 218 0.0 8.0 0.00 0.00 0.00 59 1014.3
20260504023504 9 180 1.6 8.0 0.00 0.00 0.00 58 1014.3